Flag for Germany Weather past 2 weeks in Worms, Rhineland-Palatinate, Germany

Now
63 °F

Sunny.


Feels Like: 63 °F
Forecast: 47 / 69 °F
Wind: 9 mph from Northeast

Location: Baden Wurttemberg - Neuostheim


UV Index: 3 (Moderate)

Visibility: 10 mi


Pressure: 29.80 "Hg

Humidity: 52%

Dew point: 45 °F

Location of WormsLocation

Historic Weather in Worms

°F

Worms temperature yesterday

Maximum temperature yesterday: 55 °F (at 12:50 PM)
Minimum temperature yesterday: 46 °F (at 8:50 AM)
Average temperature yesterday: 51 °F

Past Weeks' High & Low Weather Summary

 TemperatureHumidityPressure
High72 °F (Apr 7, 4:20 PM)100% (Apr 5, 7:20 AM)30.42 "Hg (Apr 5, 7:20 AM)
Low34 °F (Apr 17, 6:50 AM)23% (Apr 17, 6:50 PM)29.74 "Hg (Apr 4, 7:20 PM)
Average56 °F55%30.09 "Hg
* Reported Apr 4 7:20 PM — Apr 19 7:50 PM, Worms, Weather by CustomWeather, © 2014

Note: Actual official high and low records may vary slightly from our data, if they occured in-between our weather recording intervals... More about our weather records

Advertising

Historic Weather Conditions — Data for Previous 24 hours

 ConditionsComfort  
Time TempWeatherWind HumidityBarometerVisibility
7:50 PM
Apr 19
63 °FSunny.9 mph52%29.80 "Hg10 mi
7:20 PM63 °FPassing clouds.9 mph52%29.80 "HgN/A
6:50 PM64 °FSunny.12 mph49%29.80 "Hg10 mi
6:20 PM64 °FPassing clouds.9 mph46%29.80 "HgN/A
5:50 PM66 °FSunny.14 mph43%29.80 "Hg10 mi
5:20 PM64 °FSunny.13 mph46%29.80 "Hg10 mi
4:50 PM66 °FSunny.12 mph40%29.80 "Hg10 mi
4:20 PM66 °FPassing clouds.9 mph40%29.80 "HgN/A
3:50 PM64 °FSunny.9 mph40%29.83 "Hg10 mi
3:20 PM63 °FPassing clouds.9 mph45%29.83 "HgN/A
2:50 PM63 °FPassing clouds.12 mph42%29.86 "HgN/A
2:20 PM61 °FPassing clouds.13 mph45%29.89 "HgN/A
1:50 PM61 °FPassing clouds.13 mph45%29.89 "HgN/A
1:20 PM57 °FPassing clouds.14 mph48%29.89 "HgN/A
12:50 PM57 °FPassing clouds.15 mph48%29.92 "HgN/A
12:20 PM54 °FPassing clouds.13 mph54%29.92 "HgN/A
11:50 AM52 °FPassing clouds.9 mph58%29.95 "HgN/A
11:20 AM50 °FScattered clouds.10 mph67%29.95 "HgN/A
10:50 AM46 °FPassing clouds.12 mph71%29.95 "HgN/A
10:20 AM46 °FSunny.10 mph71%29.98 "Hg10 mi
9:50 AM45 °FSunny.9 mph76%29.98 "Hg10 mi
9:20 AM43 °FPassing clouds.8 mph81%29.98 "HgN/A
8:50 AM43 °FPassing clouds.8 mph81%29.98 "HgN/A
8:20 AM43 °FSunny.6 mph81%29.98 "Hg10 mi
7:50 AM43 °FSunny.5 mph81%29.95 "Hg10 mi
7:20 AM41 °FClear.3 mph87%29.95 "Hg10 mi
Weather by CustomWeather, © 2014

See weather overview